Precipitable_Water
1.26 1.23 0.99 0.92 0.84 0.88 0.83 0.76 0.69 0.67 0.61 0.61 0.56 0.58 0.54 0.56 0.55 0.52 0.50 0.53 0.57 0.58 0.57 0.60 0.68 0.78 0.72 0.68 0.69 0.66 0.62 0.54 0.47 0.36 0.20 0.28 0.36 0.36 0.35 0.33 0.31 0.29 0.28
1.23 1.21 0.97 0.90 0.91 0.95 0.94 0.84 0.78 0.72 0.65 0.65 0.61 0.60 0.57 0.58 0.56 0.55 0.54 0.56 0.55 0.59 0.64 0.69 0.79 0.77 0.71 0.71 0.67 0.62 0.58 0.53 0.42 0.25 0.18 0.13 0.25 0.30 0.28 0.28 0.27 0.27 0.27
1.15 1.18 1.04 0.91 0.93 0.95 0.94 0.88 0.83 0.73 0.65 0.65 0.66 0.64 0.64 0.65 0.59 0.59 0.58 0.59 0.60 0.65 0.68 0.75 0.79 0.77 0.74 0.68 0.65 0.61 0.56 0.45 0.34 0.22 0.15 0.13 0.14 0.15 0.23 0.24 0.24 0.25 0.25
1.13 1.23 1.16 0.99 0.98 0.98 1.00 0.95 0.87 0.75 0.67 0.67 0.67 0.62 0.60 0.59 0.62 0.63 0.63 0.63 0.64 0.69 0.75 0.79 0.80 0.78 0.72 0.66 0.64 0.60 0.52 0.42 0.24 0.15 0.18 0.21 0.20 0.16 0.16 0.21 0.23 0.25 0.26
0.98 0.91 1.07 0.98 1.04 1.03 1.02 0.97 0.88 0.78 0.68 0.73 0.74 0.70 0.70 0.70 0.72 0.73 0.69 0.70 0.74 0.81 0.84 0.85 0.82 0.76 0.71 0.66 0.63 0.59 0.49 0.37 0.20 0.16 0.17 0.18 0.20 0.22 0.20 0.18 0.21 0.25 0.27
0.84 0.81 1.06 1.09 1.03 1.05 1.07 0.98 0.86 0.78 0.73 0.80 0.78 0.76 0.76 0.79 0.83 0.83 0.78 0.79 0.81 0.87 0.89 0.88 0.83 0.76 0.69 0.64 0.61 0.57 0.47 0.32 0.19 0.19 0.20 0.20 0.20 0.21 0.22 0.22 0.23 0.23 0.26
0.82 0.91 0.90 0.96 1.00 1.00 1.04 1.04 0.89 0.78 0.76 0.81 0.79 0.84 0.84 0.87 0.90 0.88 0.84 0.82 0.84 0.87 0.89 0.88 0.81 0.75 0.67 0.62 0.59 0.53 0.45 0.27 0.19 0.20 0.21 0.24 0.25 0.26 0.26 0.26 0.25 0.23 0.25
0.72 0.84 0.93 0.97 1.00 1.00 1.07 1.10 0.94 0.82 0.80 0.81 0.82 0.88 0.88 0.91 0.93 0.93 0.93 0.89 0.88 0.92 0.90 0.88 0.84 0.75 0.69 0.61 0.56 0.52 0.39 0.24 0.20 0.22 0.23 0.24 0.26 0.28 0.29 0.28 0.26 0.22 0.22
0.51 0.72 0.92 1.02 1.05 1.03 1.08 1.08 1.00 0.87 0.84 0.78 0.86 0.91 0.91 0.96 0.97 0.97 0.97 0.95 0.99 0.96 0.90 0.88 0.83 0.76 0.68 0.61 0.55 0.48 0.32 0.21 0.21 0.23 0.24 0.25 0.27 0.28 0.29 0.29 0.30 0.27 0.21
0.53 0.63 0.83 0.94 1.03 1.13 1.14 1.10 1.06 0.90 0.85 0.87 0.91 0.95 0.91 1.00 0.99 0.97 0.97 0.96 1.02 0.95 0.91 0.87 0.81 0.73 0.67 0.61 0.51 0.41 0.29 0.20 0.21 0.23 0.25 0.26 0.27 0.28 0.30 0.31 0.31 0.30 0.26
0.50 0.57 0.74 0.91 0.99 1.08 1.09 1.07 1.02 0.94 0.89 0.91 0.94 0.99 0.95 0.98 1.00 0.99 0.98 0.97 0.99 0.96 0.89 0.84 0.77 0.71 0.66 0.59 0.46 0.35 0.24 0.20 0.21 0.24 0.26 0.27 0.28 0.29 0.30 0.31 0.31 0.29 0.27
0.53 0.64 0.73 0.86 0.94 0.97 1.04 1.02 1.02 0.96 0.95 0.92 0.96 1.00 1.04 0.99 0.97 0.98 0.97 0.98 0.97 0.94 0.87 0.80 0.73 0.68 0.64 0.56 0.40 0.32 0.23 0.20 0.22 0.25 0.26 0.27 0.28 0.27 0.28 0.28 0.28 0.27 0.26
0.58 0.65 0.69 0.77 0.84 0.87 0.90 0.91 0.94 0.98 1.04 1.00 0.97 1.02 1.03 0.97 0.95 0.96 0.95 0.97 0.94 0.89 0.84 0.75 0.69 0.65 0.61 0.49 0.36 0.29 0.22 0.22 0.25 0.26 0.27 0.27 0.27 0.26 0.25 0.25 0.24 0.24 0.23
0.60 0.62 0.66 0.73 0.79 0.82 0.84 0.88 0.90 0.98 1.01 1.00 1.01 1.01 0.97 0.97 0.95 0.95 0.94 0.94 0.89 0.84 0.76 0.69 0.66 0.63 0.57 0.44 0.34 0.28 0.23 0.24 0.27 0.28 0.29 0.29 0.28 0.27 0.27 0.27 0.26 0.25 0.21
0.57 0.59 0.58 0.65 0.75 0.79 0.82 0.85 0.87 0.92 0.96 0.98 1.01 0.92 0.96 0.94 0.95 0.94 0.93 0.89 0.83 0.77 0.70 0.67 0.64 0.60 0.52 0.38 0.32 0.25 0.23 0.24 0.26 0.29 0.30 0.31 0.31 0.31 0.30 0.29 0.27 0.25 0.22
0.56 0.57 0.56 0.57 0.64 0.75 0.80 0.84 0.86 0.90 0.97 0.91 0.87 0.90 0.88 0.91 0.92 0.92 0.88 0.82 0.76 0.70 0.67 0.65 0.61 0.55 0.45 0.32 0.24 0.19 0.22 0.25 0.28 0.29 0.31 0.32 0.32 0.32 0.33 0.32 0.29 0.26 0.22
0.56 0.56 0.58 0.57 0.59 0.66 0.75 0.80 0.86 0.90 0.87 0.85 0.87 0.84 0.84 0.86 0.87 0.83 0.79 0.74 0.69 0.66 0.65 0.64 0.58 0.50 0.37 0.31 0.21 0.18 0.22 0.26 0.29 0.30 0.31 0.32 0.33 0.33 0.32 0.30 0.27 0.24 0.22
0.56 0.61 0.61 0.59 0.60 0.67 0.72 0.78 0.82 0.82 0.81 0.82 0.82 0.82 0.84 0.83 0.81 0.76 0.71 0.67 0.65 0.64 0.63 0.60 0.54 0.44 0.35 0.28 0.19 0.21 0.24 0.28 0.31 0.32 0.32 0.32 0.32 0.33 0.30 0.27 0.24 0.23 0.21
0.60 0.60 0.62 0.61 0.60 0.65 0.71 0.74 0.75 0.77 0.79 0.78 0.79 0.82 0.83 0.80 0.73 0.69 0.65 0.63 0.63 0.62 0.60 0.56 0.48 0.39 0.34 0.26 0.20 0.20 0.25 0.27 0.29 0.31 0.32 0.32 0.31 0.30 0.29 0.25 0.23 0.20 0.21
0.62 0.63 0.65 0.66 0.63 0.66 0.70 0.72 0.73 0.75 0.74 0.77 0.79 0.81 0.79 0.74 0.72 0.68 0.63 0.63 0.63 0.60 0.55 0.49 0.43 0.40 0.31 0.27 0.24 0.21 0.25 0.25 0.28 0.30 0.30 0.30 0.29 0.29 0.28 0.25 0.22 0.20 0.20
0.68 0.72 0.71 0.67 0.67 0.69 0.69 0.67 0.70 0.70 0.74 0.76 0.77 0.77 0.75 0.73 0.71 0.66 0.63 0.62 0.60 0.55 0.49 0.43 0.41 0.37 0.31 0.29 0.26 0.25 0.26 0.25 0.25 0.26 0.27 0.29 0.30 0.28 0.27 0.26 0.24 0.22 0.24
0.77 0.78 0.75 0.69 0.70 0.71 0.70 0.68 0.68 0.75 0.76 0.76 0.76 0.74 0.71 0.69 0.67 0.63 0.61 0.60 0.55 0.49 0.43 0.39 0.37 0.34 0.32 0.31 0.30 0.29 0.29 0.30 0.26 0.26 0.28 0.29 0.28 0.26 0.26 0.25 0.25 0.25 0.25
0.75 0.74 0.76 0.73 0.71 0.70 0.72 0.69 0.72 0.74 0.74 0.73 0.72 0.70 0.67 0.65 0.64 0.60 0.58 0.54 0.50 0.43 0.39 0.36 0.34 0.33 0.34 0.33 0.33 0.32 0.33 0.32 0.29 0.28 0.27 0.26 0.24 0.26 0.26 0.25 0.25 0.24 0.23
0.73 0.74 0.74 0.71 0.69 0.72 0.72 0.72 0.72 0.72 0.71 0.69 0.67 0.65 0.62 0.61 0.61 0.59 0.55 0.50 0.45 0.41 0.39 0.36 0.34 0.35 0.35 0.34 0.35 0.35 0.37 0.35 0.32 0.28 0.25 0.25 0.27 0.27 0.25 0.24 0.23 0.23 0.22
0.76 0.76 0.73 0.71 0.70 0.73 0.73 0.74 0.71 0.71 0.68 0.66 0.63 0.60 0.60 0.59 0.57 0.55 0.52 0.48 0.45 0.42 0.40 0.38 0.37 0.35 0.33 0.35 0.36 0.37 0.34 0.31 0.26 0.24 0.24 0.25 0.25 0.22 0.21 0.21 0.22 0.22 0.21
0.80 0.75 0.72 0.72 0.73 0.73 0.73 0.72 0.72 0.70 0.67 0.64 0.61 0.59 0.58 0.57 0.56 0.53 0.51 0.49 0.46 0.44 0.45 0.43 0.39 0.39 0.38 0.39 0.38 0.37 0.33 0.27 0.24 0.24 0.24 0.23 0.22 0.21 0.20 0.19 0.19 0.20 0.19
Wind_Speed
15 15 11 11 11 10 9 8 7 6 7 7 9 9 8 8 8 8 8 8 8 8 9 9 10 11 11 10 10 10 11 13 15 15 15 12 12 15 16 18 20 23 24
11 14 13 12 12 11 10 10 8 7 7 7 8 9 9 8 8 8 8 8 8 9 9 9 10 10 10 11 11 11 11 13 14 14 14 15 15 17 18 20 23 24 26
12 15 16 12 12 12 11 11 9 9 9 8 8 8 8 7 8 8 8 8 8 9 9 9 10 9 10 11 10 11 12 13 15 15 15 15 15 19 19 22 24 25 26
9 13 13 15 14 14 12 11 11 10 10 9 9 9 8 7 7 7 7 8 8 9 9 10 10 10 10 10 11 11 13 14 16 16 17 17 17 18 20 23 25 26 26
8 14 16 16 14 12 13 13 13 12 12 11 10 9 8 7 7 7 7 8 8 9 9 10 10 10 10 10 11 12 14 15 16 17 18 18 20 21 21 23 25 26 26
12 12 12 14 13 14 13 13 14 14 14 13 12 11 10 9 8 8 8 8 9 10 10 9 9 9 10 11 11 13 14 15 17 17 18 19 20 22 23 24 26 27 27
13 13 14 14 13 13 14 15 16 15 15 14 14 12 11 11 11 9 9 10 11 12 11 10 9 10 11 11 12 13 15 16 17 18 19 20 22 23 24 25 26 27 28
13 17 18 17 14 14 15 14 17 17 17 16 15 14 13 12 12 13 12 13 13 13 11 10 10 10 12 12 13 14 16 17 18 18 20 21 22 24 25 26 27 28 28
11 15 18 18 16 15 15 14 17 17 18 17 16 16 14 14 15 15 16 16 15 14 12 11 11 12 13 14 14 16 17 17 18 19 21 22 24 25 26 27 28 28 29
14 12 16 17 17 16 15 14 16 18 18 19 18 17 17 16 16 17 17 16 15 14 13 13 13 13 14 15 15 17 18 18 19 20 21 23 25 25 26 27 28 29 30
15 14 11 15 16 16 16 16 16 17 18 20 19 18 19 19 18 18 17 16 15 15 14 14 14 14 15 16 17 17 18 18 19 21 22 24 25 26 27 28 29 30 31
14 13 11 13 15 15 17 18 18 19 20 21 21 21 20 20 19 18 17 16 16 15 15 15 15 15 16 17 17 17 18 18 20 21 23 25 26 27 28 29 30 31 32
13 12 11 13 15 16 17 18 19 19 20 21 22 21 21 21 20 19 18 17 17 16 16 16 15 16 16 17 18 18 18 19 20 22 24 25 26 27 29 30 30 31 33
14 13 13 15 17 18 18 19 19 20 20 21 21 21 20 19 19 19 18 18 18 17 17 16 16 16 17 18 18 18 19 20 21 23 25 26 27 28 28 30 30 32 33
20 17 17 18 18 18 18 18 19 20 20 20 20 19 18 18 18 19 19 19 18 18 17 16 16 17 18 19 19 19 20 21 23 24 25 26 27 27 28 30 32 33 35
22 19 19 19 19 20 19 19 19 20 19 18 18 18 18 18 18 18 19 19 19 18 18 17 17 19 19 19 19 20 20 22 23 24 26 27 27 27 29 30 32 34 35
23 22 21 20 19 19 20 20 20 19 19 19 18 18 18 17 18 18 18 19 19 18 18 18 18 19 19 19 19 20 21 22 24 25 26 26 27 28 30 32 34 35 36
25 23 21 20 19 19 19 19 19 20 20 19 20 19 18 18 18 18 19 19 19 18 18 18 18 18 19 18 19 20 21 23 25 26 26 26 27 29 31 33 34 35 35
26 25 23 22 20 20 20 19 19 20 20 20 20 20 19 18 18 18 19 19 18 18 18 18 18 18 19 18 19 20 21 23 23 25 25 26 28 30 32 33 35 35 35
26 24 21 20 20 21 21 21 21 21 21 21 21 20 19 19 19 19 19 18 18 18 18 18 18 18 19 18 19 20 21 23 24 25 26 27 29 31 32 33 34 34 35
20 21 20 20 20 20 21 22 22 22 21 21 20 20 20 19 19 19 19 18 18 18 17 17 18 18 18 19 19 20 21 23 24 25 26 27 30 31 32 32 33 33 35
18 19 19 19 19 21 22 22 23 22 22 21 21 20 20 19 19 18 18 18 18 18 18 17 17 18 18 19 19 20 21 22 23 25 26 28 30 31 31 32 33 34 34
22 22 21 20 21 22 22 23 23 23 23 22 22 21 21 20 19 19 18 18 18 18 18 18 19 18 19 19 19 20 21 22 24 26 27 29 29 29 30 31 32 33 34
24 24 24 23 23 23 23 24 25 24 24 24 23 22 21 19 19 19 19 19 19 19 19 19 19 19 19 19 19 20 22 23 25 27 28 27 27 28 29 31 32 33 33
26 27 27 26 24 24 24 25 25 25 25 24 23 23 22 21 19 19 19 19 20 20 19 19 19 18 19 19 19 20 22 24 26 26 25 26 27 28 30 31 32 32 33
25 29 28 28 27 26 25 25 26 25 25 25 24 24 23 22 21 20 18 18 20 19 19 19 19 19 18 18 19 21 23 25 25 24 25 26 26 28 30 31 31 32 34
Wind_Direction
240 218 206 203 200 205 208 214 221 231 227 232 224 224 227 234 244 245 250 260 271 285 294 300 309 316 321 325 331 327 330 337 337 337 339 342 337 341 341 340 338 336 336
234 221 202 200 206 211 216 219 227 235 233 234 228 228 230 240 245 247 254 262 271 283 294 296 311 313 319 321 324 327 327 332 339 336 334 330 324 326 331 334 334 335 333
231 211 204 207 209 214 220 228 232 238 236 232 230 229 230 239 241 248 259 263 274 286 290 296 305 310 315 317 321 322 326 329 332 338 333 330 325 325 324 329 329 329 331
214 209 223 234 227 226 228 232 236 237 236 229 228 224 226 230 238 248 261 267 275 285 291 294 301 305 309 312 316 322 325 327 330 329 331 331 328 326 324 326 330 328 329
228 247 246 229 229 231 234 237 238 236 229 228 229 221 225 233 236 254 259 274 280 290 293 295 299 303 307 311 313 317 322 325 327 328 328 328 328 328 325 325 327 328 328
246 250 239 228 239 242 240 237 234 232 229 229 226 224 226 231 242 257 262 274 281 289 293 293 299 303 306 308 312 317 322 324 326 326 327 328 326 326 326 325 326 327 327
263 254 251 240 239 240 239 239 231 230 226 227 225 227 235 245 247 253 266 274 279 283 283 285 295 302 305 306 310 315 319 322 324 325 326 326 326 326 326 325 325 326 326
273 260 258 248 247 245 245 244 229 225 224 225 228 235 249 246 250 260 268 275 276 275 273 279 292 301 304 307 308 313 317 319 321 323 325 325 326 326 326 325 325 325 326
307 269 256 250 249 247 244 243 224 222 227 229 232 240 243 253 256 262 274 273 267 265 265 271 287 298 305 306 305 310 315 316 320 322 324 324 325 326 325 325 326 326 325
304 290 256 247 244 244 242 238 227 227 229 233 237 244 249 257 259 269 275 267 259 257 260 270 283 293 302 308 307 310 314 315 318 321 323 324 325 326 326 325 326 327 325
300 297 260 243 241 241 237 238 233 231 233 236 241 248 252 256 266 271 270 261 257 253 261 269 279 288 299 305 308 310 313 315 317 320 322 324 325 325 326 326 327 327 327
297 298 269 249 241 245 241 244 241 239 239 240 244 249 253 255 262 266 261 257 253 253 262 269 279 286 296 303 306 309 311 313 316 319 322 324 324 325 326 325 326 326 326
285 290 276 257 251 248 247 245 246 246 243 243 246 249 253 253 259 260 258 252 251 256 262 269 277 285 294 301 304 307 309 312 315 319 322 323 324 325 327 327 327 327 327
269 273 275 272 264 256 251 248 248 247 246 245 245 248 249 251 258 257 252 250 251 256 263 267 276 284 292 299 302 305 308 311 314 318 321 322 323 325 327 328 328 328 329
265 264 270 272 267 259 254 250 248 246 246 244 244 242 246 253 257 255 250 249 252 257 260 266 276 284 292 297 300 303 307 310 314 317 320 322 321 323 325 327 328 328 328
261 261 270 271 260 257 257 251 250 248 245 239 236 240 248 254 255 252 250 249 252 254 259 268 276 283 291 296 299 301 304 310 314 317 320 322 322 323 325 326 327 328 328
257 260 266 269 260 255 253 254 250 245 239 235 239 244 250 252 253 252 250 250 250 253 260 269 277 284 289 294 298 301 303 308 313 316 319 321 322 324 325 326 327 328 328
255 259 264 267 258 253 253 250 246 242 239 240 242 246 249 252 253 253 251 249 250 255 262 270 277 283 289 293 298 301 306 309 313 315 318 319 321 323 324 325 327 327 327
255 257 261 261 254 251 250 246 244 242 241 242 244 246 249 252 254 253 248 248 251 257 263 271 276 282 288 293 298 301 307 312 315 318 319 320 322 324 325 326 327 328 328
253 253 256 256 251 249 246 245 244 243 244 243 244 247 249 252 254 252 247 248 252 258 265 272 277 281 286 292 298 303 306 311 313 316 319 321 323 324 325 326 328 328 329
247 247 249 254 253 249 244 245 244 244 243 241 243 246 249 253 254 249 248 249 253 259 265 272 277 282 285 290 297 304 309 311 314 317 318 321 324 325 326 327 328 329 330
250 252 251 255 255 251 247 247 245 241 240 241 243 246 250 252 250 246 248 250 255 260 265 271 277 282 285 289 295 303 310 314 317 319 320 321 324 326 327 329 330 330 331
252 250 250 255 259 255 250 249 244 240 240 242 244 247 248 248 246 245 248 253 256 261 266 272 277 280 283 288 294 301 308 313 317 320 321 322 324 326 328 329 330 331 332
256 254 253 256 259 256 252 250 245 241 240 242 244 245 242 243 245 247 250 253 257 262 268 272 276 279 281 286 292 300 306 310 315 319 320 322 324 326 328 329 331 332 332
262 252 254 256 256 254 252 251 244 240 239 242 242 241 240 242 244 249 253 255 260 263 268 273 277 280 283 286 292 299 306 311 315 318 320 323 325 327 329 330 331 332 333
269 256 257 255 252 253 253 249 243 240 239 240 241 240 240 242 244 248 254 260 263 266 270 273 276 282 284 287 293 301 306 311 315 317 320 322 324 326 328 330 332 333 333